Location: Mountain Grove
(34.0887°N, 86.6172°W)
Time: 14:53:39
(UTC+00:00)

Resurs 1-4 Rocket - Pass Details

Date: 14 July 2020
Orbit: 800 x 814 km, 98.6° (Epoch: 12 August)

Event Time Altitude Azimuth Distance (km) Brightness Sun altitude
Rises 06:29:40 0° 26° (NNE) 3,337 6.3 -33.6°
Reaches altitude 10° 06:32:20 10° 37° (NE) 2,399 5.2 -33.5°
Enters shadow 06:35:35 26° 72° (ENE) 1,553 3.8 -33.4°
